Location: Bastelaar
(51.0950°N, 3.8602°E)
Time: 05:36:12
(UTC+00:00)

USA 281 - Pass Details

Date: 18 November 2025
Orbit: 1079 x 1080 km, 106.0° (Epoch: 11 December)

Event Time Altitude Azimuth Distance (km) Brightness Sun altitude
Exits shadow 19:58:24 47° 268° (W) 1,398 4.0 -38.1°
Drops below altitude 10° 20:04:06 10° 325° (NW) 2,930 6.0 -38.9°
Sets 20:06:45 0° 331° (NNW) 3,890 6.7 -39.3°
